Torna al catalogo

STARLINK-31911

AttivoComunicazioniVLEO
NORAD 60587·PAYLOAD·🇺🇸 United States

Lanciato Aug 20, 2024 da Cape Canaveral Space Force Station

Loading…

Prossimi Passaggi (prossime 24 ore)

TLE

AggiornatoSource: CelesTrak SupGP

Epoca: Sep 14, 2026, 21:36 UTC

1 60587C 24150E   26257.90048611 -.00049967  00000+0 -14762-2 0  2574
2 60587  53.1576 144.0767 0001329  95.9887  63.0609 15.34418192    18

Traccia STARLINK-31911 in tempo reale con AllMySat

Download on the App Store